Tracking 31027 objects as of 19-Jul-2025
HD Live streaming from Space Station
objects crossing your sky now

CZ-2D R/B

Track CZ-2D R/B now!
10-day predictions


NORAD ID: 54641
Int'l Code: 2022-165B
Perigee: 650.7 km
Apogee: 697.9 km
Inclination: 98.1 °
Period: 98.1 minutes
Semi major axis: 7045 km
RCS: Unknown
Launch date: December 8, 2022
Source: People's Republic of China (PRC)
Launch site: Taiyaun Space Center, China (TSC)

Note: This is a ROCKET BODY
Your satellite tracking list
Your tracking list is empty




NASA's NSSDC Master Catalog

Two Line Element Set (TLE):
1 54641U 22165B   25199.87082708  .00000479  00000-0  91382-4 0  9999
2 54641  98.1194 139.3492 0033489 166.4964 193.7145 14.68092654139691
Source of the keplerian elements: McCants